FW6724 Weather Reports


Display with metric or nautical units.
time (UTC)temp
F
wind
direction
speed
MPH
gust
MPH
rain 1hr
in
rain 24hr
in
rain mn
in
humidity
%
barometer
mb
20260504234550 64 0 0.0 5.0 0.00 0.02 0.00 61 1012.9
20260504233040 66 0 0.0 3.0 0.00 0.02 0.00 62 1013.0
20260504231536 66 0 0.0 0.0 0.00 0.02 0.00 62 1012.7
20260504230039 66 0 0.0 0.0 0.00 0.02 0.00 61 1012.7
20260504224541 66 0 0.0 2.0 0.00 0.02 0.00 61 1012.8
20260504223042 66 0 0.0 3.0 0.00 0.02 0.00 61 1012.7
20260504221537 66 0 0.0 0.0 0.00 0.02 0.00 60 1012.7
20260504220037 66 0 0.0 3.0 0.00 0.02 0.00 60 1012.6
20260504214534 67 144 0.0 3.0 0.00 0.02 0.02 60 1012.4
20260504213054 67 121 0.0 4.0 0.00 0.02 0.02 59 1012.5
20260504211539 67 99 2.0 5.0 0.00 0.02 0.02 59 1012.5
20260504210037 68 140 2.0 10.0 0.00 0.02 0.02 58 1012.5
20260504204535 68 151 2.0 9.0 0.00 0.02 0.02 57 1012.4
20260504203037 69 0 1.0 5.0 0.00 0.02 0.02 55 1012.1
20260504201540 69 0 0.0 4.0 0.00 0.02 0.02 54 1011.9
20260504200039 70 0 0.0 0.0 0.00 0.02 0.02 53 1011.6
20260504194547 71 0 0.0 3.0 0.00 0.02 0.02 51 1011.2
20260504193045 71 78 2.0 9.0 0.00 0.02 0.02 50 1011.0
20260504191532 73 44 2.0 11.0 0.00 0.02 0.02 45 1010.9
20260504190041 76 73 2.0 6.0 0.00 0.02 0.02 37 1010.6
20260504184534 77 302 1.0 5.0 0.00 0.02 0.02 38 1010.3
20260504183037 77 149 1.0 8.0 0.00 0.02 0.02 34 1010.2
20260504181536 78 154 4.0 10.0 0.00 0.02 0.02 33 1010.0
20260504180036 79 141 3.0 9.0 0.00 0.02 0.02 31 1009.9
20260504174535 79 184 4.0 10.0 0.00 0.02 0.02 30 1009.9
20260504173043 80 205 4.0 7.0 0.00 0.02 0.02 29 1010.0
20260504171539 80 241 3.0 11.0 0.00 0.02 0.02 29 1010.0
20260504081537 64 0 0.0 0.0 0.00 0.02 0.02 74 1013.6
20260504044541 63 0 0.0 0.0 0.00 0.02 0.02 72 1012.8
20260504043035 63 0 0.0 0.0 0.00 0.02 0.02 72 1012.8
20260504041537 63 0 0.0 0.0 0.00 0.02 0.02 72 1012.9
20260504040038 63 0 0.0 0.0 0.00 0.02 0.02 72 1012.9
20260504034540 63 0 0.0 0.0 0.00 0.02 0.02 72 1013.0
20260504033048 63 0 0.0 0.0 0.00 0.02 0.02 71 1013.2
20260504031534 63 0 0.0 0.0 0.00 0.02 0.02 71 1013.3
20260504030035 63 0 0.0 0.0 0.00 0.02 0.02 71 1013.5
20260504024535 63 0 0.0 0.0 0.00 0.02 0.02 71 1013.6
20260504023036 63 0 0.0 0.0 0.00 0.02 0.02 70 1013.6
20260504021536 63 0 0.0 0.0 0.00 0.02 0.02 70 1013.6
20260504020035 63 0 0.0 0.0 0.00 0.01 0.01 70 1013.7
20260504014536 63 0 0.0 0.0 0.01 0.01 0.01 70 1013.7
20260504013042 63 0 0.0 0.0 0.01 0.01 0.01 69 1013.8
20260504011536 64 0 0.0 0.0 0.01 0.01 0.01 69 1013.9
20260504010047 64 0 0.0 0.0 0.00 0.00 0.00 68 1013.9
20260504004536 64 0 0.0 0.0 0.00 0.00 0.00 68 1014.0
20260504003039 64 0 0.0 0.0 0.00 0.00 0.00 68 1014.1
20260504001554 64 0 0.0 0.0 0.00 0.00 0.00 67 1014.1
20260504000041 65 0 0.0 5.0 0.00 0.00 0.00 68 1014.0